Погода в Орехове

Россия / Волгоградская область     50°28′24″N   44°25′27″E
темп.,
°C
ветер,
м/с
пор.,
м/с
влажн.,
%
обл.,
%
осадки,
мм/ч
давл.,
гПа
погр.,
м
19 сентября, вс
вс1900:00+10в4942100 0.0 1022325
03:00+10вюв4103798 0.0 1022359
06:00+9вюв61142100 0.0 1021390
09:00+13вюв793486 0.0 1022682
12:00+17вюв7829100 0.0 10201233
15:00+18вюв892897 0.0 10191636
18:00+15вюв71232100 0.0 1018525
21:00+14вюв81532100 0.0 1018590
20 сентября, пн
пн2000:00+13юв8163199 0.0 1017513
03:00+12юв71530100 0.0 1017620
06:00+11вюв71441100 0.5 1016531
09:00+9вюв91658100 1.5 1015621
12:00+8юв81579100 1.5 1016595
15:00+9юв81484100 2.1 1015599
18:00+10вюв71277100 0.1 1014453
21:00+10в41078100 1.4 1015419
21 сентября, вт
вт2100:00+11в4107866 0.3 1014309
03:00+9в498651 0.3 1014182
06:00+8вюв368586 0.0 1013101
09:00+15ююв3565100 0.4 1013305
12:00+19ююз5759100 0.4 10121165
15:00+19ююз575917 3.0 10111191
18:00+16з2271100 1.0 101013
21:00+13зсз3378100 1.1 101149
22 сентября, ср
ср2200:00+13з2276100 0.0 101125
03:00+13ююз2271100 0.0 101026
06:00+12юз3676100 0.1 1010202
09:00+12з458298 0.1 1011447
12:00+15зюз345729 0.0 10111106
15:00+15зюз4449100 0.0 10111098
18:00+14ю1153100 0.0 101226
21:00+11сз346328 0.0 1013108
23 сентября, чт
чт2300:00+9сз22725 0.0 101421
03:00+8сз2273100 0.0 101414
06:00+8сз2273100 0.0 101425
09:00+11ссз2358100 0.0 1013365
12:00+13с325170 0.0 1013720
15:00+15с224565 0.0 10121583
18:00+13ссв3452100 0.0 1012126
21:00+11всв2367100 0.0 101269